,,PA_Meas_PMT16A,,PR_Meas_QMR101_102,,RH_Meas_QMH101,,SR_Meas_QMS101,,TA_Meas_QMH101,,GenWind,,GenWind,
time,status,PA,status,PR,status,RH,status,SR,status,TA,status,DirAvg,status,SpdAvg,
2010-10-18, 00:00:05,VALID,918.679,VALID,0,VALID,94.0348,VALID,0,VALID,18.494,VALID,4,VALID,0.378906,
2010-10-18, 00:01:05,VALID,918.664,VALID,0,VALID,94.073,VALID,0,VALID,18.416,VALID,4,VALID,0.427344,
2010-10-18, 00:02:05,VALID,918.655,VALID,0,VALID,94.6371,VALID,0,VALID,18.3965,VALID,4,VALID,0.141797,
2010-10-18, 00:03:05,VALID,918.675,VALID,0,VALID,95.1021,VALID,0,VALID,18.4355,VALID,4,VALID,0.341797,
2010-10-18, 00:04:05,VALID,918.647,VALID,0,VALID,95.3308,VALID,0,VALID,18.455,VALID,4,VALID,0.171875,
2010-10-18, 00:05:05,VALID,918.653,VALID,0,VALID,95.2622,VALID,0,VALID,18.4745,VALID,4,VALID,0.156641,
2010-10-18, 00:06:05,VALID,918.666,VALID,0,VALID,94.4236,VALID,0,VALID,18.4369,VALID,4,VALID,0,
2010-10-18, 00:07:05,VALID,918.68,VALID,0,VALID,94.2407,VALID,0,VALID,18.416,VALID,4,VALID,0.556641,
2010-10-18, 00:08:05,VALID,918.663,VALID,0,VALID,94.4541,VALID,0,VALID,18.416,VALID,4,VALID,0.253125,
2010-10-18, 00:09:05,VALID,918.676,VALID,0,VALID,94.7591,VALID,0,VALID,18.4355,VALID,4,VALID,0,
2010-10-18, 00:10:05,VALID,918.687,VALID,0,VALID,94.0425,VALID,0,VALID,18.3575,VALID,4,VALID,0,
2010-10-18, 00:11:05,VALID,918.714,VALID,0,VALID,93.0972,VALID,0,VALID,18.3185,VALID,4,VALID,0.663281,
2010-10-18, 00:12:05,VALID,918.733,VALID,0,VALID,94.1187,VALID,0,VALID,18.3575,VALID,4,VALID,0.365625,
2010-10-18, 00:13:05,VALID,918.695,VALID,0,VALID,94.8734,VALID,0,VALID,18.4355,VALID,4,VALID,0.233203,
2010-10-18, 00:14:05,VALID,918.697,VALID,0,VALID,94.2026,VALID,0,VALID,18.3965,VALID,4,VALID,0.00195313,
2010-10-18, 00:15:05,VALID,918.721,VALID,0,VALID,93.8366,VALID,0,VALID,18.338,VALID,4,VALID,0.303125,
2010-10-18, 00:16:05,VALID,918.701,VALID,0,VALID,94.1949,VALID,0,VALID,18.3185,VALID,4,VALID,0.24375,
2010-10-18, 00:17:05,VALID,918.673,VALID,0,VALID,95.0106,VALID,0,VALID,18.3575,VALID,4,VALID,0.128516,
2010-10-18, 00:18:05,VALID,918.656,VALID,0,VALID,95.5748,VALID,0,VALID,18.4355,VALID,4,VALID,0.189453,
2010-10-18, 00:19:05,VALID,918.647,VALID,0,VALID,95.8568,VALID,0,VALID,18.4745,VALID,4,VALID,0.2625,
2010-10-18, 00:20:05,VALID,918.628,VALID,0,VALID,95.8111,VALID,0,VALID,18.494,VALID,4,VALID,0.123438,
2010-10-18, 00:21:05,VALID,918.589,VALID,0,VALID,95.9636,VALID,0,VALID,18.572,VALID,4,VALID,0,
2010-10-18, 00:22:05,VALID,918.567,VALID,0,VALID,95.9331,VALID,0,VALID,18.572,VALID,4,VALID,0,
2010-10-18, 00:23:05,VALID,918.516,VALID,0,VALID,95.5976,VALID,0,VALID,18.5525,VALID,4,VALID,0,
2010-10-18, 00:24:05,VALID,918.493,VALID,0,VALID,95.2012,VALID,0,VALID,18.533,VALID,4,VALID,0,
2010-10-18, 00:25:05,VALID,918.492,VALID,0,VALID,94.7667,VALID,0,VALID,18.5525,VALID,4,VALID,0.101563,
2010-10-18, 00:26:05,VALID,918.461,VALID,0,VALID,94.1034,VALID,0,VALID,18.533,VALID,4,VALID,0.192578,
2010-10-18, 00:27:05,VALID,918.453,VALID,0,VALID,92.9447,VALID,0,VALID,18.5135,VALID,4,VALID,0.316406,
2010-10-18, 00:28:05,VALID,918.448,VALID,0,VALID,91.0617,VALID,0,VALID,18.416,VALID,4,VALID,0.432031,
2010-10-18, 00:29:05,VALID,918.453,VALID,0,VALID,93.7604,VALID,0,VALID,18.377,VALID,4,VALID,0.468359,
2010-10-18, 00:30:05,VALID,918.444,VALID,0,VALID,94.3245,VALID,0,VALID,18.3199,VALID,4,VALID,0.545313,
2010-10-18, 00:31:05,VALID,918.467,VALID,0,VALID,95.3232,VALID,0,VALID,18.3589,VALID,4,VALID,0.558203,
2010-10-18, 00:32:05,VALID,918.446,VALID,0,VALID,95.3613,VALID,0,VALID,18.299,VALID,4,VALID,0.470313,
2010-10-18, 00:33:05,VALID,918.444,VALID,0,VALID,95.4833,VALID,0,VALID,18.2796,VALID,4,VALID,0.177344,
2010-10-18, 00:34:05,VALID,918.438,VALID,0,VALID,95.4909,VALID,0,VALID,18.2601,VALID,4,VALID,0,
2010-10-18, 00:35:05,VALID,918.442,VALID,0,VALID,95.712,VALID,0,VALID,18.3185,VALID,4,VALID,0.0992187,
2010-10-18, 00:36:05,VALID,918.426,VALID,0,VALID,95.8111,VALID,0,VALID,18.3185,VALID,4,VALID,0.289453,
2010-10-18, 00:37:05,VALID,918.454,VALID,0,VALID,95.9178,VALID,0,VALID,18.377,VALID,4,VALID,0.428125,
2010-10-18, 00:38:05,VALID,918.439,VALID,0,VALID,95.8797,VALID,0,VALID,18.3965,VALID,4,VALID,0.6,
2010-10-18, 00:39:05,VALID,918.446,VALID,0,VALID,95.9178,VALID,0,VALID,18.416,VALID,4,VALID,0.337891,
2010-10-18, 00:40:05,VALID,918.41,VALID,0,VALID,95.8492,VALID,0,VALID,18.4355,VALID,4,VALID,0.0597656,
2010-10-18, 00:41:05,VALID,918.43,VALID,0,VALID,95.7501,VALID,0,VALID,18.455,VALID,4,VALID,0,
2010-10-18, 00:42:05,VALID,918.44,VALID,0,VALID,95.6662,VALID,0,VALID,18.494,VALID,4,VALID,0,
2010-10-18, 00:43:05,VALID,918.473,VALID,0,VALID,95.4604,VALID,0,VALID,18.533,VALID,4,VALID,0,
2010-10-18, 00:44:05,VALID,918.434,VALID,0,VALID,95.125,VALID,0,VALID,18.5525,VALID,4,VALID,0,
2010-10-18, 00:45:05,VALID,918.431,VALID,0,VALID,94.7438,VALID,0,VALID,18.6319,VALID,4,VALID,0,
2010-10-18, 00:46:05,VALID,918.399,VALID,0,VALID,94.4846,VALID,0,VALID,18.629,VALID,4,VALID,0,
2010-10-18, 00:47:05,VALID,918.442,VALID,0,VALID,94.1416,VALID,0,VALID,18.6694,VALID,4,VALID,0.470313,
2010-10-18, 00:48:05,VALID,918.379,VALID,0,VALID,92.9142,VALID,0,VALID,18.6109,VALID,4,VALID,0.345703,
2010-10-18, 00:49:05,VALID,918.367,VALID,0,VALID,93.2877,VALID,0,VALID,18.572,VALID,4,VALID,0.502734,
2010-10-18, 00:50:05,VALID,918.401,VALID,0,VALID,93.9662,VALID,0,VALID,18.5525,VALID,4,VALID,0.535937,
2010-10-18, 00:51:05,VALID,918.382,VALID,0,VALID,94.1187,VALID,0,VALID,18.5734,VALID,4,VALID,0.462891,
2010-10-18, 00:52:05,VALID,918.374,VALID,0,VALID,94.0958,VALID,0,VALID,18.5525,VALID,4,VALID,0.428906,
2010-10-18, 00:53:04,VALID,918.374,VALID,0,VALID,94.012,VALID,0,VALID,18.5914,VALID,4,VALID,0.526172,
2010-10-18, 00:54:04,VALID,918.402,VALID,0,VALID,93.89,VALID,0,VALID,18.6304,VALID,4,VALID,0.523438,
2010-10-18, 00:55:04,VALID,918.375,VALID,0,VALID,93.3182,VALID,0,VALID,18.7084,VALID,4,VALID,0.623438,
2010-10-18, 00:56:04,VALID,918.361,VALID,0,VALID,92.6931,VALID,0,VALID,18.7279,VALID,4,VALID,0.287109,
2010-10-18, 00:57:04,VALID,918.342,VALID,0,VALID,92.1595,VALID,0,VALID,18.7084,VALID,4,VALID,0.349609,
2010-10-18, 00:58:04,VALID,918.325,VALID,0,VALID,91.8164,VALID,0,VALID,18.6304,VALID,4,VALID,0.288281,
2010-10-18, 00:59:04,VALID,918.282,VALID,0,VALID,90.7187,VALID,0,VALID,18.494,VALID,4,VALID,0.375,
2010-10-18, 01:00:04,VALID,918.294,VALID,0,VALID,92.3196,VALID,0,VALID,18.416,VALID,4,VALID,0.222656,
2010-10-18, 01:01:04,VALID,918.296,VALID,0,VALID,93.2572,VALID,0,VALID,18.3575,VALID,4,VALID,0.259375,
2010-10-18, 01:02:04,VALID,918.34,VALID,0,VALID,93.7375,VALID,0,VALID,18.3185,VALID,4,VALID,0,
2010-10-18, 01:03:04,VALID,918.309,VALID,0,VALID,94.1644,VALID,0,VALID,18.3185,VALID,4,VALID,0,
2010-10-18, 01:04:04,VALID,918.321,VALID,0,VALID,94.1568,VALID,0,VALID,18.338,VALID,4,VALID,0.276563,
2010-10-18, 01:05:04,VALID,918.279,VALID,0,VALID,93.5012,VALID,0,VALID,18.3185,VALID,4,VALID,0.0972656,
2010-10-18, 01:06:04,VALID,918.252,VALID,0,VALID,93.6918,VALID,0,VALID,18.299,VALID,4,VALID,0,
2010-10-18, 01:07:04,VALID,918.235,VALID,0,VALID,94.1263,VALID,0,VALID,18.3185,VALID,4,VALID,0.282031,
2010-10-18, 01:08:04,VALID,918.186,VALID,0,VALID,93.829,VALID,0,VALID,18.2796,VALID,4,VALID,0.173438,
2010-10-18, 01:09:04,VALID,918.203,VALID,0,VALID,93.8138,VALID,0,VALID,18.299,VALID,4,VALID,0.199609,
2010-10-18, 01:10:04,VALID,918.205,VALID,0,VALID,94.416,VALID,0,VALID,18.338,VALID,4,VALID,0,
2010-10-18, 01:11:04,VALID,918.208,VALID,0,VALID,92.9752,VALID,0,VALID,18.2796,VALID,4,VALID,0,
2010-10-18, 01:12:04,VALID,918.178,VALID,0,VALID,91.1074,VALID,0,VALID,18.1835,VALID,4,VALID,0.144922,
2010-10-18, 01:13:04,VALID,918.207,VALID,0,VALID,93.1353,VALID,0,VALID,18.1835,VALID,4,VALID,0.29375,
2010-10-18, 01:14:04,VALID,918.182,VALID,0,VALID,93.4402,VALID,0,VALID,18.1236,VALID,4,VALID,0.0226563,
2010-10-18, 01:15:04,VALID,918.16,VALID,0,VALID,94.2483,VALID,0,VALID,18.1236,VALID,4,VALID,0.510938,
2010-10-18, 01:16:04,VALID,918.128,VALID,0,VALID,94.294,VALID,0,VALID,18.125,VALID,4,VALID,0.324609,
2010-10-18, 01:17:04,VALID,918.094,VALID,0,VALID,94.3703,VALID,0,VALID,18.086,VALID,4,VALID,0,
2010-10-18, 01:18:04,VALID,918.042,VALID,0,VALID,93.7985,VALID,0,VALID,18.0262,VALID,4,VALID,0.35625,
2010-10-18, 01:19:04,VALID,917.995,VALID,0,VALID,93.6079,VALID,0,VALID,17.9677,VALID,4,VALID,0.452344,
2010-10-18, 01:20:04,VALID,917.949,VALID,0,VALID,93.6384,VALID,0,VALID,17.9496,VALID,4,VALID,0.478125,
2010-10-18, 01:21:04,VALID,917.906,VALID,0,VALID,93.9281,VALID,0,VALID,17.9496,VALID,4,VALID,0.498047,
2010-10-18, 01:22:04,VALID,917.899,VALID,0,VALID,94.1034,VALID,0,VALID,17.9886,VALID,4,VALID,0.274219,
2010-10-18, 01:23:04,VALID,917.829,VALID,0,VALID,94.0348,VALID,0,VALID,17.9677,VALID,4,VALID,0.00273437,
2010-10-18, 01:24:04,VALID,917.8,VALID,0,VALID,93.1658,VALID,0,VALID,17.8897,VALID,4,VALID,0.305078,
2010-10-18, 01:25:04,VALID,917.767,VALID,0,VALID,92.9066,VALID,0,VALID,17.8508,VALID,4,VALID,0.336719,
2010-10-18, 01:26:04,VALID,917.764,VALID,0,VALID,94.3093,VALID,0,VALID,17.9106,VALID,4,VALID,0.375,
2010-10-18, 01:27:04,VALID,917.766,VALID,0,VALID,94.2407,VALID,0,VALID,17.8118,VALID,4,VALID,1.14492,
2010-10-18, 01:28:04,VALID,917.772,VALID,0,VALID,95.0564,VALID,0,VALID,17.8702,VALID,4,VALID,0.984766,
2010-10-18, 01:29:04,VALID,917.757,VALID,0,VALID,95.5671,VALID,0.107441,VALID,17.8494,VALID,4,VALID,0.835156,
2010-10-18, 01:30:04,VALID,917.731,VALID,0,VALID,95.3308,VALID,0,VALID,17.7728,VALID,4,VALID,0.784375,
2010-10-18, 01:31:04,VALID,917.705,VALID,0,VALID,93.9815,VALID,0,VALID,17.5571,VALID,4,VALID,0.337109,
2010-10-18, 01:32:04,VALID,917.716,VALID,0,VALID,94.0577,VALID,0,VALID,17.5584,VALID,4,VALID,0.162109,
2010-10-18, 01:33:04,VALID,917.739,VALID,0,VALID,93.7528,VALID,0.107441,VALID,17.4583,VALID,4,VALID,0.121094,
2010-10-18, 01:34:04,VALID,917.745,VALID,0,VALID,95.2317,VALID,0,VALID,17.6364,VALID,4,VALID,0.999219,
2010-10-18, 01:35:04,VALID,917.727,VALID,0,VALID,95.9864,VALID,0,VALID,17.752,VALID,4,VALID,1.07539,
2010-10-18, 01:36:04,VALID,917.713,VALID,0,VALID,96.2151,VALID,0,VALID,17.7909,VALID,4,VALID,0.857422,
2010-10-18, 01:37:04,VALID,917.699,VALID,0,VALID,96.2685,VALID,0,VALID,17.7909,VALID,4,VALID,0.495313,
2010-10-18, 01:38:04,VALID,917.734,VALID,0,VALID,95.8035,VALID,0,VALID,17.5961,VALID,4,VALID,0.753516,
2010-10-18, 01:39:04,VALID,917.717,VALID,0,VALID,96.0474,VALID,0,VALID,17.6156,VALID,4,VALID,0.495313,
2010-10-18, 01:40:04,VALID,917.713,VALID,0,VALID,96.1008,VALID,0,VALID,17.5961,VALID,4,VALID,0.265625,
2010-10-18, 01:41:04,VALID,917.696,VALID,0,VALID,96.3219,VALID,0.107441,VALID,17.6545,VALID,4,VALID,0.571875,
2010-10-18, 01:42:04,VALID,917.674,VALID,0,VALID,96.4286,VALID,0,VALID,17.674,VALID,4,VALID,0.289063,
2010-10-18, 01:43:04,VALID,917.651,VALID,0,VALID,96.4362,VALID,0,VALID,17.7157,VALID,4,VALID,0.202344,
2010-10-18, 01:44:04,VALID,917.619,VALID,0,VALID,96.4972,VALID,0,VALID,17.7157,VALID,4,VALID,0,
2010-10-18, 01:45:04,VALID,917.61,VALID,0,VALID,96.5429,VALID,0,VALID,17.7143,VALID,4,VALID,0,
2010-10-18, 01:46:04,VALID,917.587,VALID,0,VALID,96.4972,VALID,0,VALID,17.7352,VALID,4,VALID,0,
2010-10-18, 01:47:04,VALID,917.573,VALID,0,VALID,96.4286,VALID,0,VALID,17.6948,VALID,4,VALID,0,
2010-10-18, 01:48:04,VALID,917.544,VALID,0,VALID,96.5429,VALID,0,VALID,17.7352,VALID,4,VALID,0,
2010-10-18, 01:49:04,VALID,917.524,VALID,0,VALID,96.6649,VALID,0,VALID,17.7936,VALID,4,VALID,0,
2010-10-18, 01:50:04,VALID,917.543,VALID,0,VALID,96.6573,VALID,0,VALID,17.8118,VALID,4,VALID,0,
2010-10-18, 01:51:04,VALID,917.58,VALID,0,VALID,96.703,VALID,0,VALID,17.8313,VALID,4,VALID,0,
2010-10-18, 01:52:04,VALID,917.575,VALID,0,VALID,96.703,VALID,0,VALID,17.8911,VALID,4,VALID,0.442187,
2010-10-18, 01:53:04,VALID,917.556,VALID,0,VALID,96.7259,VALID,0,VALID,17.9691,VALID,4,VALID,0.305469,
2010-10-18, 01:54:04,VALID,917.551,VALID,0,VALID,96.6649,VALID,0,VALID,18.008,VALID,4,VALID,0.173828,
2010-10-18, 01:55:04,VALID,917.539,VALID,0,VALID,96.5887,VALID,0,VALID,17.9677,VALID,4,VALID,0.369141,
2010-10-18, 01:56:04,VALID,917.538,VALID,0,VALID,96.4133,VALID,0,VALID,17.9691,VALID,4,VALID,0.271484,
2010-10-18, 01:57:04,VALID,917.522,VALID,0,VALID,96.2914,VALID,0,VALID,17.9092,VALID,4,VALID,0.0121094,
2010-10-18, 01:58:04,VALID,917.589,VALID,0,VALID,96.3295,VALID,0,VALID,17.9677,VALID,4,VALID,0.355078,
2010-10-18, 01:59:04,VALID,917.566,VALID,0,VALID,96.4515,VALID,0,VALID,18.0638,VALID,4,VALID,0.29375,
2010-10-18, 02:00:04,VALID,917.584,VALID,0,VALID,96.3371,VALID,0.107441,VALID,18.1028,VALID,4,VALID,0.557813,
2010-10-18, 02:01:04,VALID,917.538,VALID,0,VALID,95.8797,VALID,0.107441,VALID,18.0443,VALID,4,VALID,0.671875,
2010-10-18, 02:02:04,VALID,917.553,VALID,0,VALID,95.7806,VALID,0,VALID,18.1028,VALID,4,VALID,0.675,
2010-10-18, 02:03:04,VALID,917.558,VALID,0,VALID,95.9864,VALID,0,VALID,18.2016,VALID,4,VALID,0.557422,
2010-10-18, 02:04:04,VALID,917.544,VALID,0,VALID,96.0245,VALID,0,VALID,18.2211,VALID,4,VALID,0.383594,
2010-10-18, 02:05:04,VALID,917.496,VALID,0,VALID,96.0093,VALID,0.107441,VALID,18.2211,VALID,4,VALID,0,
2010-10-18, 02:06:04,VALID,917.464,VALID,0,VALID,95.834,VALID,0,VALID,18.1807,VALID,4,VALID,0.448438,
2010-10-18, 02:07:04,VALID,917.43,VALID,0,VALID,95.8721,VALID,0,VALID,18.2016,VALID,4,VALID,0.402734,
2010-10-18, 02:08:04,VALID,917.383,VALID,0,VALID,95.9559,VALID,0,VALID,18.2016,VALID,4,VALID,0.663672,
2010-10-18, 02:09:04,VALID,917.367,VALID,0,VALID,96.1465,VALID,0,VALID,18.2406,VALID,4,VALID,0.953516,
2010-10-18, 02:10:04,VALID,917.318,VALID,0,VALID,95.8035,VALID,0,VALID,18.1821,VALID,4,VALID,0.459375,
2010-10-18, 02:11:04,VALID,917.274,VALID,0,VALID,95.4223,VALID,0.107441,VALID,18.0651,VALID,4,VALID,0.1875,
2010-10-18, 02:12:04,VALID,917.268,VALID,0,VALID,95.1402,VALID,0,VALID,17.9872,VALID,4,VALID,0.348047,
2010-10-18, 02:13:04,VALID,917.222,VALID,0,VALID,95.5519,VALID,0,VALID,18.0067,VALID,4,VALID,0.457422,
2010-10-18, 02:14:04,VALID,917.186,VALID,0,VALID,95.712,VALID,0,VALID,17.9872,VALID,4,VALID,0.401172,
2010-10-18, 02:15:04,VALID,917.217,VALID,0,VALID,95.8492,VALID,0,VALID,17.9872,VALID,4,VALID,0,
2010-10-18, 02:16:04,VALID,917.23,VALID,0,VALID,95.9026,VALID,0.107441,VALID,17.9858,VALID,4,VALID,0,
2010-10-18, 02:17:04,VALID,917.227,VALID,0,VALID,95.895,VALID,0.107441,VALID,17.9872,VALID,4,VALID,0,
2010-10-18, 02:18:04,VALID,917.254,VALID,0,VALID,95.8797,VALID,0,VALID,17.9872,VALID,4,VALID,0.305078,
2010-10-18, 02:19:04,VALID,917.212,VALID,0,VALID,95.6586,VALID,0,VALID,17.9482,VALID,4,VALID,0.292188,
2010-10-18, 02:20:04,VALID,917.224,VALID,0,VALID,95.4833,VALID,0,VALID,17.8897,VALID,4,VALID,0,
2010-10-18, 02:21:04,VALID,917.239,VALID,0,VALID,95.4071,VALID,0,VALID,17.8702,VALID,4,VALID,0,
2010-10-18, 02:22:04,VALID,917.232,VALID,0,VALID,95.5138,VALID,0,VALID,17.8689,VALID,4,VALID,0,
2010-10-18, 02:23:04,VALID,917.278,VALID,0,VALID,95.5976,VALID,0,VALID,17.8897,VALID,4,VALID,0,
2010-10-18, 02:24:04,VALID,917.25,VALID,0,VALID,95.5748,VALID,0,VALID,17.8897,VALID,4,VALID,0,
2010-10-18, 02:25:04,VALID,917.231,VALID,0,VALID,95.4985,VALID,0,VALID,17.8299,VALID,4,VALID,0,
2010-10-18, 02:26:04,VALID,917.247,VALID,0,VALID,95.6357,VALID,0,VALID,17.8494,VALID,4,VALID,0.209766,
2010-10-18, 02:27:04,VALID,917.203,VALID,0,VALID,94.7286,VALID,0,VALID,17.752,VALID,4,VALID,0.491797,
2010-10-18, 02:28:04,VALID,917.202,VALID,0,VALID,94.2178,VALID,0,VALID,17.7728,VALID,4,VALID,0.467187,
2010-10-18, 02:29:04,VALID,917.188,VALID,0,VALID,93.89,VALID,0,VALID,17.6948,VALID,4,VALID,0.786719,
2010-10-18, 02:30:04,VALID,917.185,VALID,0,VALID,94.8277,VALID,0,VALID,17.6948,VALID,4,VALID,0.942578,
2010-10-18, 02:31:04,VALID,917.2,VALID,0,VALID,95.2698,VALID,0,VALID,17.6948,VALID,4,VALID,0.674219,
2010-10-18, 02:32:04,VALID,917.211,VALID,0,VALID,95.3232,VALID,0,VALID,17.6754,VALID,4,VALID,0.757031,
2010-10-18, 02:33:04,VALID,917.204,VALID,0,VALID,95.6434,VALID,0,VALID,17.7338,VALID,4,VALID,0.432813,
2010-10-18, 02:34:04,VALID,917.242,VALID,0,VALID,95.773,VALID,0,VALID,17.7923,VALID,4,VALID,0.428516,
2010-10-18, 02:35:04,VALID,917.251,VALID,0,VALID,95.8645,VALID,0,VALID,17.8508,VALID,4,VALID,0.7,
2010-10-18, 02:36:04,VALID,917.223,VALID,0,VALID,95.8263,VALID,0,VALID,17.9092,VALID,4,VALID,0.282031,
2010-10-18, 02:37:04,VALID,917.176,VALID,0,VALID,95.8111,VALID,0,VALID,17.9482,VALID,4,VALID,0.748828,
2010-10-18, 02:38:04,VALID,917.168,VALID,0,VALID,95.3918,VALID,0,VALID,17.9092,VALID,4,VALID,1.41133,
2010-10-18, 02:39:04,VALID,917.15,VALID,0,VALID,94.8505,VALID,0,VALID,17.9287,VALID,4,VALID,0.705859,
2010-10-18, 02:40:04,VALID,917.163,VALID,0,VALID,94.7972,VALID,0,VALID,17.9079,VALID,4,VALID,1.06836,
2010-10-18, 02:41:04,VALID,917.121,VALID,0,VALID,95.0869,VALID,0,VALID,17.9482,VALID,4,VALID,0.921094,
2010-10-18, 02:42:04,VALID,917.131,VALID,0,VALID,95.0259,VALID,0,VALID,17.9482,VALID,4,VALID,0.68125,
2010-10-18, 02:43:04,VALID,917.063,VALID,0,VALID,95.1555,VALID,0,VALID,17.9677,VALID,4,VALID,0.770703,
2010-10-18, 02:44:04,VALID,917.04,VALID,0,VALID,95.0183,VALID,0,VALID,17.9287,VALID,4,VALID,0.70625,
2010-10-18, 02:45:04,VALID,917.05,VALID,0,VALID,95.1555,VALID,0,VALID,17.9482,VALID,4,VALID,0.477734,
2010-10-18, 02:46:04,VALID,917.029,VALID,0,VALID,95.0716,VALID,0,VALID,17.9287,VALID,4,VALID,0.601172,
2010-10-18, 02:47:04,VALID,916.987,VALID,0,VALID,94.9344,VALID,0,VALID,17.8897,VALID,4,VALID,0.671875,
2010-10-18, 02:48:04,VALID,916.952,VALID,0,VALID,95.1479,VALID,0,VALID,17.8897,VALID,4,VALID,0.652344,
2010-10-18, 02:49:04,VALID,916.926,VALID,0,VALID,95.4299,VALID,0,VALID,17.9092,VALID,4,VALID,0.667969,
2010-10-18, 02:50:04,VALID,916.893,VALID,0,VALID,95.5367,VALID,0,VALID,17.9287,VALID,4,VALID,0.457422,
2010-10-18, 02:51:04,VALID,916.877,VALID,0,VALID,95.4375,VALID,0,VALID,17.9287,VALID,4,VALID,0.541016,
2010-10-18, 02:52:04,VALID,916.864,VALID,0,VALID,95.3232,VALID,0.107441,VALID,17.8897,VALID,4,VALID,0.538672,
2010-10-18, 02:53:04,VALID,916.837,VALID,0,VALID,95.0716,VALID,0,VALID,17.8702,VALID,4,VALID,0.766406,
2010-10-18, 02:54:04,VALID,916.808,VALID,0,VALID,95.4757,VALID,0,VALID,17.8897,VALID,4,VALID,0.885156,
2010-10-18, 02:55:04,VALID,916.799,VALID,0,VALID,95.7349,VALID,0,VALID,17.9287,VALID,4,VALID,0.953906,
2010-10-18, 02:56:04,VALID,916.825,VALID,0,VALID,95.5138,VALID,0,VALID,17.9092,VALID,4,VALID,0.517578,
2010-10-18, 02:57:04,VALID,916.852,VALID,0,VALID,95.529,VALID,0,VALID,17.9092,VALID,4,VALID,0.267188,
2010-10-18, 02:58:04,VALID,916.881,VALID,0,VALID,95.5824,VALID,0,VALID,17.9287,VALID,4,VALID,0.0351563,
2010-10-18, 02:59:04,VALID,916.902,VALID,0,VALID,95.5367,VALID,0,VALID,17.9482,VALID,4,VALID,0,
2010-10-18, 03:00:04,VALID,916.903,VALID,0,VALID,95.5367,VALID,0,VALID,17.9287,VALID,4,VALID,0,
2010-10-18, 03:01:04,VALID,916.894,VALID,0,VALID,95.5824,VALID,0,VALID,17.9482,VALID,4,VALID,0.00273437,
2010-10-18, 03:02:04,VALID,916.905,VALID,0,VALID,95.7501,VALID,0,VALID,17.9872,VALID,4,VALID,0.366016,
2010-10-18, 03:03:04,VALID,916.91,VALID,0,VALID,95.4452,VALID,0,VALID,17.9872,VALID,4,VALID,0.444531,
2010-10-18, 03:04:04,VALID,916.967,VALID,0,VALID,95.1402,VALID,0,VALID,17.9872,VALID,4,VALID,0.505469,
2010-10-18, 03:05:04,VALID,916.941,VALID,0,VALID,94.9954,VALID,0,VALID,17.9677,VALID,4,VALID,0.674219,
2010-10-18, 03:06:04,VALID,916.945,VALID,0,VALID,95.6129,VALID,0,VALID,18.0457,VALID,4,VALID,0.844922,
2010-10-18, 03:07:04,VALID,916.959,VALID,0,VALID,95.8568,VALID,0,VALID,18.0846,VALID,4,VALID,0.678906,
2010-10-18, 03:08:04,VALID,916.971,VALID,0,VALID,95.9636,VALID,0,VALID,18.1236,VALID,4,VALID,0.674609,
2010-10-18, 03:09:04,VALID,916.978,VALID,0,VALID,96.0779,VALID,0,VALID,18.1821,VALID,4,VALID,0.469531,
2010-10-18, 03:10:04,VALID,916.935,VALID,0,VALID,96.1084,VALID,0,VALID,18.2211,VALID,4,VALID,0.148828,
2010-10-18, 03:11:04,VALID,916.925,VALID,0,VALID,96.177,VALID,0,VALID,18.2601,VALID,4,VALID,0.276563,
2010-10-18, 03:12:04,VALID,916.928,VALID,0,VALID,96.1465,VALID,0,VALID,18.3185,VALID,4,VALID,0.131641,
2010-10-18, 03:13:04,VALID,916.893,VALID,0,VALID,96.1999,VALID,0,VALID,18.377,VALID,4,VALID,0.01875,
2010-10-18, 03:14:04,VALID,916.909,VALID,0,VALID,96.1846,VALID,0,VALID,18.455,VALID,4,VALID,0,
2010-10-18, 03:15:04,VALID,916.93,VALID,0,VALID,96.1694,VALID,0,VALID,18.494,VALID,4,VALID,0,
2010-10-18, 03:16:04,VALID,916.93,VALID,0,VALID,96.238,VALID,0,VALID,18.5511,VALID,4,VALID,0.112109,
2010-10-18, 03:17:04,VALID,916.924,VALID,0,VALID,96.1313,VALID,0,VALID,18.6304,VALID,4,VALID,0,
2010-10-18, 03:18:04,VALID,916.927,VALID,0,VALID,95.895,VALID,0,VALID,18.629,VALID,4,VALID,0,
2010-10-18, 03:19:04,VALID,916.974,VALID,0,VALID,95.6281,VALID,0,VALID,18.6499,VALID,4,VALID,0,
2010-10-18, 03:20:04,VALID,916.923,VALID,0,VALID,95.5519,VALID,0,VALID,18.7279,VALID,4,VALID,0.228516,
2010-10-18, 03:21:04,VALID,916.939,VALID,0,VALID,95.5062,VALID,0,VALID,18.7669,VALID,4,VALID,0.334766,
2010-10-18, 03:22:04,VALID,916.908,VALID,0,VALID,95.529,VALID,0,VALID,18.8254,VALID,4,VALID,0.505859,
2010-10-18, 03:23:04,VALID,916.906,VALID,0,VALID,95.5824,VALID,0,VALID,18.9034,VALID,4,VALID,0.0257812,
2010-10-18, 03:24:04,VALID,916.877,VALID,0,VALID,94.9496,VALID,0,VALID,18.8434,VALID,4,VALID,0.196875,
2010-10-18, 03:25:04,VALID,916.826,VALID,0,VALID,93.4936,VALID,0,VALID,18.7474,VALID,5,VALID,0.390234,
2010-10-18, 03:26:04,VALID,916.827,VALID,0,VALID,93.2344,VALID,0,VALID,18.7279,VALID,4,VALID,0.240234,
2010-10-18, 03:27:04,VALID,916.797,VALID,0,VALID,93.8595,VALID,0,VALID,18.668,VALID,5,VALID,0.116797,
2010-10-18, 03:28:04,VALID,916.777,VALID,0,VALID,94.4389,VALID,0,VALID,18.6499,VALID,4,VALID,0.409766,
2010-10-18, 03:29:04,VALID,916.79,VALID,0,VALID,94.7896,VALID,0,VALID,18.6513,VALID,4,VALID,0.128906,
2010-10-18, 03:30:04,VALID,916.8,VALID,0,VALID,94.9954,VALID,0,VALID,18.6513,VALID,4,VALID,0.498828,
2010-10-18, 03:31:04,VALID,916.787,VALID,0,VALID,95.5138,VALID,0,VALID,18.6499,VALID,4,VALID,0.686328,
2010-10-18, 03:32:04,VALID,916.803,VALID,0,VALID,95.5976,VALID,0,VALID,18.6499,VALID,4,VALID,0.485156,
2010-10-18, 03:33:04,VALID,916.795,VALID,0,VALID,95.3156,VALID,0,VALID,18.5929,VALID,4,VALID,0.373828,
2010-10-18, 03:34:04,VALID,916.8,VALID,0,VALID,95.7272,VALID,0,VALID,18.6513,VALID,4,VALID,0.342969,
2010-10-18, 03:35:04,VALID,916.762,VALID,0,VALID,95.9483,VALID,0,VALID,18.6889,VALID,4,VALID,0.201172,
2010-10-18, 03:36:04,VALID,916.763,VALID,0,VALID,96.1923,VALID,0,VALID,18.7669,VALID,4,VALID,0.330078,
2010-10-18, 03:37:04,VALID,916.778,VALID,0,VALID,96.2228,VALID,0,VALID,18.7864,VALID,4,VALID,0.680859,
2010-10-18, 03:38:04,VALID,916.75,VALID,0,VALID,96.1389,VALID,0,VALID,18.7683,VALID,4,VALID,0.828906,
2010-10-18, 03:39:04,VALID,916.753,VALID,0,VALID,96.1465,VALID,0,VALID,18.7474,VALID,4,VALID,0.460938,
2010-10-18, 03:40:04,VALID,916.752,VALID,0,VALID,96.3295,VALID,0,VALID,18.8268,VALID,4,VALID,0.755859,
2010-10-18, 03:41:04,VALID,916.739,VALID,0,VALID,96.4133,VALID,0,VALID,18.8254,VALID,4,VALID,0.882422,
2010-10-18, 03:42:04,VALID,916.739,VALID,0,VALID,96.4743,VALID,0,VALID,18.8839,VALID,4,VALID,0.735156,
2010-10-18, 03:43:04,VALID,916.764,VALID,0,VALID,96.5353,VALID,0,VALID,18.9424,VALID,4,VALID,0.653125,
2010-10-18, 03:44:04,VALID,916.757,VALID,0,VALID,96.5429,VALID,0,VALID,18.9814,VALID,4,VALID,0.441797,
2010-10-18, 03:45:04,VALID,916.781,VALID,0,VALID,96.5048,VALID,0,VALID,19.0203,VALID,4,VALID,0.425781,
2010-10-18, 03:46:04,VALID,916.764,VALID,0,VALID,96.3676,VALID,0,VALID,19.0398,VALID,4,VALID,0.409766,
2010-10-18, 03:47:04,VALID,916.806,VALID,0,VALID,95.9026,VALID,0,VALID,18.9229,VALID,4,VALID,0.423047,
2010-10-18, 03:48:04,VALID,916.813,VALID,0,VALID,96.0932,VALID,0,VALID,18.9814,VALID,4,VALID,0.54375,
2010-10-18, 03:49:04,VALID,916.849,VALID,0,VALID,95.9254,VALID,0,VALID,18.9828,VALID,4,VALID,0.424609,
2010-10-18, 03:50:04,VALID,916.852,VALID,0,VALID,96.055,VALID,0,VALID,18.9814,VALID,4,VALID,0.464063,
2010-10-18, 03:51:04,VALID,916.863,VALID,0,VALID,96.116,VALID,0,VALID,18.9994,VALID,4,VALID,0.40625,